FW0784 Weather Reports


time (UTC)temp
C
wind
direction
speed
KPH
gust
KPH
rain 1hr
cm
rain 24hr
cm
rain mn
cm
humidity
%
barometer
mb
20260906190057 33 33 4.8 9.7 0.00 0.00 0.00 47 1011.5
20260906184558 34 32 4.8 14.5 0.00 0.00 0.00 47 1011.8
20260906183058 34 8 0.0 8.0 0.00 0.00 0.00 45 1012.1
20260906181555 35 11 4.8 14.5 0.00 0.00 0.00 45 1012.5
20260906180105 33 354 4.8 12.9 0.00 0.00 0.00 47 1013.0
20260906174556 33 31 4.8 12.9 0.00 0.00 0.00 47 1013.2
20260906173047 33 25 3.2 14.5 0.00 0.00 0.00 50 1013.3
20260906171548 32 337 3.2 9.7 0.00 0.00 0.00 53 1013.5
20260906170049 31 354 4.8 8.0 0.00 0.00 0.00 54 1013.6
20260906164537 31 16 3.2 6.4 0.00 0.00 0.00 56 1013.7
20260906163041 30 35 3.2 9.7 0.00 0.00 0.00 54 1013.9
20260906161534 30 42 3.2 9.7 0.00 0.00 0.00 54 1013.8
20260906160038 30 354 3.2 8.0 0.00 0.00 0.00 53 1013.7
20260906154530 30 285 1.6 11.3 0.00 0.00 0.00 57 1013.7
20260906153027 28 67 0.0 6.4 0.00 0.00 0.00 64 1013.6
20260906151525 27 289 3.2 17.7 0.00 0.00 0.00 66 1013.6
20260906150029 27 304 6.4 16.1 0.00 0.00 0.00 66 1013.5
20260906144526 28 87 1.6 6.4 0.00 0.00 0.00 63 1013.1
20260906143029 27 177 0.0 9.7 0.00 0.00 0.00 63 1013.1
20260906141519 27 146 1.6 6.4 0.00 0.00 0.00 66 1013.1
20260906140029 26 92 0.0 3.2 0.00 0.00 0.00 69 1013.1
20260906134517 26 115 1.6 6.4 0.00 0.00 0.00 67 1013.1
20260906133016 26 113 1.6 6.4 0.00 0.00 0.00 68 1013.0
20260906131529 25 97 0.0 0.0 0.00 0.00 0.00 72 1012.8
20260906130012 23 93 0.0 0.0 0.00 0.00 0.00 74 1012.7
20260906124511 23 105 0.0 0.0 0.00 0.00 0.00 74 1012.5
20260906123008 23 129 0.0 6.4 0.00 0.00 0.00 75 1012.2
20260906121507 23 91 3.2 6.4 0.00 0.00 0.00 75 1012.0
20260906120005 23 95 1.6 6.4 0.00 0.00 0.00 75 1011.7
20260906114504 23 147 0.0 6.4 0.00 0.00 0.00 75 1011.6
20260906113003 23 91 1.6 4.8 0.00 0.00 0.00 74 1011.4
20260906111502 23 104 0.0 4.8 0.00 0.00 0.00 74 1011.3
20260906110001 23 85 0.0 0.0 0.00 0.00 0.00 75 1011.4
20260906104503 23 79 0.0 0.0 0.00 0.00 0.00 75 1011.3
20260906103100 23 97 0.0 3.2 0.00 0.00 0.00 75 1011.3
20260906101559 23 78 0.0 0.0 0.00 0.00 0.00 77 1011.2
20260906100058 23 78 0.0 0.0 0.00 0.00 0.00 77 1011.2
20260906094557 23 78 0.0 0.0 0.00 0.00 0.00 76 1011.0
20260906093054 23 78 0.0 0.0 0.00 0.00 0.00 75 1011.0
20260906091552 23 78 0.0 0.0 0.00 0.00 0.00 74 1011.1
20260906090054 24 78 0.0 0.0 0.00 0.00 0.00 71 1011.1
20260906084551 24 78 0.0 0.0 0.00 0.00 0.00 70 1010.9
20260906083047 24 78 0.0 0.0 0.00 0.00 0.00 71 1010.9
20260906081543 25 131 0.0 3.2 0.00 0.00 0.00 69 1010.9
20260906080042 25 115 0.0 4.8 0.00 0.00 0.00 68 1010.8
20260906074542 25 92 0.0 4.8 0.00 0.00 0.00 68 1010.9
20260906073043 25 95 0.0 4.8 0.00 0.00 0.00 67 1010.7
20260906071555 25 104 1.6 4.8 0.00 0.00 0.00 67 1010.7
20260906070039 25 112 1.6 4.8 0.00 0.00 0.00 67 1010.7
20260906064536 26 87 0.0 0.0 0.00 0.00 0.00 66 1010.8
20260906063035 26 124 1.6 6.4 0.00 0.00 0.00 65 1010.7
20260906061534 26 91 1.6 4.8 0.00 0.00 0.00 65 1010.7
20260906060035 26 69 1.6 4.8 0.00 0.00 0.00 64 1010.7
20260906054532 26 88 1.6 4.8 0.00 0.00 0.00 64 1010.7
20260906053030 26 115 3.2 6.4 0.00 0.00 0.00 63 1010.7
20260906051526 27 86 1.6 9.7 0.00 0.00 0.00 63 1010.6
20260906050026 27 81 1.6 6.4 0.00 0.00 0.00 62 1010.5
20260906044524 27 121 3.2 6.4 0.00 0.00 0.00 61 1010.5
20260906043030 27 114 3.2 6.4 0.00 0.00 0.00 60 1010.4
20260906041523 27 85 3.2 4.8 0.00 0.00 0.00 60 1010.5
20260906040029 28 87 1.6 6.4 0.00 0.00 0.00 59 1010.6
20260906034533 28 102 1.6 4.8 0.00 0.00 0.00 59 1010.5
20260906033027 28 86 3.2 6.4 0.00 0.00 0.00 58 1010.3
20260906031520 28 85 1.6 4.8 0.00 0.00 0.00 58 1010.2
20260906030020 29 106 0.0 4.8 0.00 0.00 0.00 58 1009.9
20260906024520 29 83 1.6 9.7 0.00 0.00 0.00 57 1009.7
20260906023019 30 91 1.6 6.4 0.00 0.00 0.00 56 1009.6
20260906021521 30 81 1.6 4.8 0.00 0.00 0.00 56 1009.3
20260906020019 30 87 1.6 4.8 0.00 0.00 0.00 55 1008.9
20260906014531 30 91 0.0 6.4 0.00 0.00 0.00 54 1008.7
20260906013019 31 87 1.6 4.8 0.00 0.00 0.00 54 1008.4
20260906011532 31 79 0.0 4.8 0.00 0.00 0.00 53 1008.3
20260906010016 32 129 0.0 4.8 0.00 0.00 0.00 51 1008.2
20260906004531 32 81 1.6 6.4 0.00 0.00 0.00 50 1008.4
20260906003015 33 95 3.2 6.4 0.00 0.00 0.00 49 1008.4
20260906001517 33 113 3.2 9.7 0.00 0.00 0.00 49 1008.5
20260906000014 33 84 3.2 9.7 0.00 0.00 0.00 48 1008.6
20260905234513 33 86 1.6 8.0 0.00 0.00 0.00 48 1008.7
20260905233013 33 89 1.6 6.4 0.00 0.00 0.00 47 1008.5
20260905231512 34 117 3.2 6.4 0.00 0.00 0.00 46 1008.5
20260905230015 35 78 3.2 9.7 0.00 0.00 0.00 44 1008.5
20260905224523 35 75 3.2 8.0 0.00 0.00 0.00 44 1008.5
20260905223011 35 67 1.6 9.7 0.00 0.00 0.00 44 1008.5
20260905221510 35 85 4.8 11.3 0.00 0.00 0.00 42 1008.6
20260905220010 36 95 3.2 9.7 0.00 0.00 0.00 42 1008.5
20260905214508 36 81 3.2 12.9 0.00 0.00 0.00 41 1008.6
20260905213013 36 120 6.4 16.1 0.00 0.00 0.00 39 1008.7
20260905211507 37 131 4.8 14.5 0.00 0.00 0.00 37 1008.9
20260905210010 37 69 6.4 19.3 0.00 0.00 0.00 37 1008.6
20260905204505 37 83 8.0 16.1 0.00 0.00 0.00 38 1008.9
20260905203004 37 95 9.7 24.1 0.00 0.00 0.00 37 1009.0
20260905201502 38 125 4.8 19.3 0.00 0.00 0.00 37 1009.3
20260905200106 38 69 8.0 17.7 0.00 0.00 0.00 36 1009.5
20260905194559 37 79 6.4 19.3 0.00 0.00 0.00 39 1009.8
20260905193109 37 93 4.8 14.5 0.00 0.00 0.00 37 1009.9
20260905191600 38 137 3.2 16.1 0.00 0.00 0.00 35 1010.0